START_TIME,STEP,MOV.,M6,t_acc.,M7,t_acc.,M19,t_acc.,H36,t_acc.
1979-07-14 12:00:51.380 ,0,0,0.,12.0,0.,12.0,0.,12.0,0.,12.0
1979-07-14 12:01:03.380 ,0,0,0.,12.0,0.,12.0,0.,12.0,0.,12.0
1979-07-14 12:01:15.380 ,0,0,0.,12.0,0.,12.0,0.,12.0,0.,12.0
1979-07-14 12:01:27.380 ,0,0,0.,12.0,0.,12.0,0.,12.0,0.,12.0
1979-07-14 12:01:39.380 ,2,1,0.,12.0,0.,12.0,0.,12.0,0.,12.0
1979-07-14 12:01:51.380 ,2,1,0.,12.0,0.,12.0,0.,12.0,0.,12.0
1979-07-14 12:02:03.380 ,2,0,0.,12.0,0.,12.0,0.,12.0,0.,12.0
1979-07-14 12:02:15.380 ,2,0,0.,12.0,0.,12.0,0.,12.0,0.,12.0
1979-07-14 12:02:27.380 ,3,1,0.,12.0,0.,12.0,0.,12.0,0.,12.0
1979-07-14 12:02:39.380 ,3,1,0.,12.0,0.,12.0,0.,12.0,0.,12.0
1979-07-14 12:02:51.380 ,3,0,0.,12.0,0.,12.0,0.,12.0,0.,12.0
1979-07-14 12:03:03.380 ,3,0,0.,12.0,0.,12.0,0.,12.0,0.,12.0
1979-07-14 12:04:03.380 ,0,0,0.,12.0,0.,12.0,0.,12.0,0.,12.0
1979-07-14 12:04:15.380 ,0,0,0.,12.0,0.,12.0,0.,12.0,0.,12.0
1979-07-14 12:04:27.380 ,0,0,0.,12.0,0.,12.0,0.,12.0,0.,12.0
1979-07-14 12:04:39.380 ,0,0,0.,12.0,0.,12.0,0.,12.0,0.,12.0
1979-07-14 12:04:51.380 ,6,1,0.,12.0,0.,12.0,0.,12.0,0.,12.0
1979-07-14 12:05:03.380 ,6,1,0.,12.0,0.,12.0,0.,12.0,0.,12.0
1979-07-14 12:05:15.380 ,6,0,0.,12.0,0.,12.0,0.,12.0,0.,12.0
1979-07-14 12:05:27.380 ,6,0,0.,12.0,0.,12.0,0.,12.0,0.,12.0
1979-07-14 12:05:39.380 ,7,1,1.,12.0,0.,12.0,0.,12.0,0.,12.0
1979-07-14 12:05:51.380 ,7,1,0.,12.0,0.,12.0,0.,12.0,0.,12.0
1979-07-14 12:06:03.380 ,7,0,0.,12.0,0.,12.0,0.,12.0,0.,12.0
1979-07-14 12:06:15.380 ,7,0,0.,12.0,0.,12.0,0.,12.0,0.,12.0
1979-07-14 12:06:27.380 ,7,1,0.,12.0,0.,12.0,0.,12.0,0.,12.0
1979-07-14 12:06:39.380 ,7,1,0.,12.0,0.,12.0,0.,12.0,0.,12.0
1979-07-14 12:06:51.380 ,7,0,0.,12.0,0.,12.0,0.,12.0,0.,12.0
1979-07-14 12:07:03.380 ,7,0,0.,12.0,0.,12.0,0.,12.0,0.,12.0
1979-07-14 12:07:15.380 ,0,0,0.,12.0,0.,12.0,0.,12.0,0.,12.0
1979-07-14 12:07:27.380 ,0,0,,0,,0,,0,,0
1979-07-14 12:07:39.380 ,0,0,,0,,0,,0,,0
1979-07-14 12:07:51.380 ,0,0,,0,,0,,0,,0
1979-07-14 12:08:03.380 ,0,0,0.,12.0,0.,12.0,0.,12.0,0.,12.0
1979-07-14 12:08:15.380 ,0,0,0.,12.0,0.,12.0,0.,12.0,0.,12.0
1979-07-14 12:08:27.380 ,0,0,0.,12.0,0.,12.0,0.,12.0,0.,12.0
1979-07-14 12:08:39.380 ,0,0,0.,12.0,0.,12.0,0.,12.0,0.,12.0
1979-07-14 12:08:51.380 ,4,1,0.,12.0,0.,12.0,0.,12.0,0.,12.0
1979-07-14 12:09:03.380 ,4,1,0.,12.0,0.,12.0,0.,12.0,0.,12.0
1979-07-14 12:09:15.380 ,4,0,0.,12.0,0.,12.0,0.,12.0,0.,12.0
1979-07-14 12:09:27.380 ,4,0,0.,12.0,0.,12.0,0.,12.0,0.,12.0
1979-07-14 12:09:39.380 ,3,1,0.,12.0,0.,12.0,0.,12.0,0.,12.0
1979-07-14 12:09:51.380 ,3,1,0.,12.0,0.,12.0,0.,12.0,0.,12.0
1979-07-14 12:10:03.380 ,3,0,0.,12.0,0.,12.0,0.,12.0,0.,12.0
1979-07-14 12:10:15.380 ,3,0,0.,12.0,0.,12.0,0.,12.0,0.,12.0
1979-07-14 12:10:27.380 ,2,1,0.,12.0,0.,12.0,0.,12.0,0.,12.0
1979-07-14 12:10:39.380 ,2,1,0.,12.0,0.,12.0,0.,12.0,0.,12.0
1979-07-14 12:10:51.380 ,2,0,0.,12.0,0.,12.0,0.,12.0,0.,12.0
1979-07-14 12:11:03.380 ,2,0,0.,12.0,0.,12.0,0.,12.0,0.,12.0
1979-07-14 12:11:15.380 ,1,1,0.,12.0,0.,12.0,0.,12.0,0.,12.0
1979-07-14 12:11:27.380 ,1,1,0.,12.0,0.,12.0,0.,12.0,0.,12.0
1979-07-14 12:11:39.380 ,1,0,0.,12.0,0.,12.0,0.,12.0,0.,12.0
1979-07-14 12:11:51.380 ,1,0,0.,12.0,0.,12.0,0.,12.0,0.,12.0
1979-07-14 12:12:03.380 ,0,1,0.,12.0,0.,12.0,0.,12.0,0.,12.0
1979-07-14 12:12:15.380 ,0,1,0.,12.0,0.,12.0,0.,12.0,0.,12.0
1979-07-14 12:12:27.380 ,0,0,0.,12.0,0.,12.0,0.,12.0,0.,12.0
1979-07-14 12:12:39.380 ,0,0,0.,12.0,0.,12.0,0.,12.0,0.,12.0
1979-07-14 12:12:51.380 ,0,1,0.,12.0,0.,12.0,0.,12.0,0.,12.0
1979-07-14 12:13:03.380 ,0,1,0.,12.0,0.,12.0,0.,12.0,0.,12.0
1979-07-14 12:13:15.380 ,0,0,0.,12.0,0.,12.0,0.,12.0,0.,12.0
1979-07-14 12:13:27.380 ,0,0,0.,12.0,0.,12.0,0.,12.0,0.,12.0
1979-07-14 12:13:39.380 ,1,1,0.,12.0,0.,12.0,0.,12.0,0.,12.0
1979-07-14 12:13:51.380 ,1,1,0.,12.0,0.,12.0,0.,12.0,0.,12.0
1979-07-14 12:14:03.380 ,1,0,0.,12.0,0.,12.0,0.,12.0,0.,12.0
1979-07-14 12:14:15.380 ,1,0,0.,12.0,0.,12.0,0.,12.0,0.,12.0
1979-07-14 12:14:27.380 ,2,1,0.,12.0,0.,12.0,0.,12.0,0.,12.0
1979-07-14 12:14:39.380 ,2,1,0.,12.0,0.,12.0,0.,12.0,0.,12.0
1979-07-14 12:14:51.380 ,2,0,0.,12.0,0.,12.0,0.,12.0,0.,12.0
1979-07-14 12:15:03.380 ,2,0,0.,12.0,0.,12.0,0.,12.0,0.,12.0
1979-07-14 12:15:15.380 ,3,1,0.,12.0,0.,12.0,0.,12.0,0.,12.0
1979-07-14 12:15:27.380 ,3,1,0.,12.0,0.,12.0,0.,12.0,0.,12.0
1979-07-14 12:15:39.380 ,3,0,0.,12.0,0.,12.0,0.,12.0,0.,12.0
1979-07-14 12:15:51.380 ,3,0,0.,12.0,0.,12.0,0.,12.0,0.,12.0
1979-07-14 12:16:03.380 ,4,1,0.,12.0,0.,12.0,0.,12.0,0.,12.0
1979-07-14 12:16:15.380 ,4,1,0.,12.0,0.,12.0,0.,12.0,0.,12.0
1979-07-14 12:16:27.380 ,4,0,0.,12.0,0.,12.0,0.,12.0,0.,12.0
1979-07-14 12:16:39.380 ,4,0,0.,12.0,0.,12.0,0.,12.0,0.,12.0
1979-07-14 12:16:51.380 ,5,1,0.,12.0,0.,12.0,0.,12.0,0.,12.0
1979-07-14 12:17:03.380 ,5,1,0.,12.0,0.,12.0,0.,12.0,0.,12.0
1979-07-14 12:17:15.380 ,5,0,0.,12.0,0.,12.0,0.,12.0,0.,12.0
1979-07-14 12:17:27.380 ,5,0,0.,12.0,0.,12.0,0.,12.0,0.,12.0
1979-07-14 12:17:39.380 ,6,1,0.,12.0,0.,12.0,0.,12.0,0.,12.0
1979-07-14 12:17:51.380 ,6,1,0.,12.0,0.,12.0,0.,12.0,0.,12.0
1979-07-14 12:18:03.380 ,6,0,0.,12.0,0.,12.0,0.,12.0,0.,12.0
1979-07-14 12:18:15.380 ,6,0,0.,12.0,0.,12.0,0.,12.0,0.,12.0
1979-07-14 12:18:27.380 ,7,0,1.,12.0,0.,12.0,0.,12.0,0.,12.0
1979-07-14 12:18:39.380 ,7,0,0.,12.0,0.,12.0,0.,12.0,0.,12.0
1979-07-14 12:18:51.380 ,7,0,0.,12.0,0.,12.0,0.,12.0,0.,12.0
1979-07-14 12:19:03.380 ,7,0,0.,12.0,0.,12.0,0.,12.0,0.,12.0
1979-07-14 12:19:15.380 ,4,1,0.,12.0,0.,12.0,0.,12.0,0.,12.0
1979-07-14 12:19:27.380 ,4,1,0.,12.0,0.,12.0,0.,12.0,0.,12.0
1979-07-14 12:19:39.380 ,0,1,0.,12.0,0.,12.0,0.,12.0,0.,12.0
1979-07-14 12:19:51.380 ,0,1,0.,12.0,0.,12.0,0.,12.0,0.,12.0
1979-07-14 12:20:03.380 ,3,1,0.,12.0,0.,12.0,0.,12.0,0.,12.0
1979-07-14 12:20:15.380 ,3,1,0.,12.0,0.,12.0,0.,12.0,0.,12.0
1979-07-14 12:20:27.380 ,7,1,0.,12.0,0.,12.0,0.,12.0,0.,12.0
1979-07-14 12:20:39.380 ,7,1,0.,12.0,0.,12.0,0.,12.0,0.,12.0
1979-07-14 12:20:51.380 ,4,1,0.,12.0,0.,12.0,0.,12.0,0.,12.0
1979-07-14 12:21:03.380 ,4,1,0.,12.0,0.,12.0,0.,12.0,0.,12.0
1979-07-14 12:21:15.380 ,0,1,0.,12.0,0.,12.0,0.,12.0,0.,12.0
1979-07-14 12:21:27.380 ,0,1,0.,12.0,0.,12.0,0.,12.0,0.,12.0
1979-07-14 12:21:39.380 ,3,1,0.,12.0,0.,12.0,0.,12.0,0.,12.0
1979-07-14 12:21:51.380 ,3,1,0.,12.0,0.,12.0,0.,12.0,0.,12.0
1979-07-14 12:22:03.380 ,7,1,0.,12.0,0.,12.0,0.,12.0,0.,12.0
1979-07-14 12:22:15.380 ,7,1,0.,12.0,0.,12.0,0.,12.0,0.,12.0
1979-07-14 12:22:27.380 ,4,1,0.,12.0,0.,12.0,0.,12.0,0.,12.0
1979-07-14 12:22:39.380 ,4,1,0.,12.0,0.,12.0,0.,12.0,0.,12.0
1979-07-14 12:22:51.380 ,0,1,0.,12.0,0.,12.0,0.,12.0,0.,12.0
1979-07-14 12:23:03.380 ,0,1,0.,12.0,0.,12.0,0.,12.0,0.,12.0
1979-07-14 12:23:15.380 ,3,1,0.,12.0,0.,12.0,0.,12.0,0.,12.0
1979-07-14 12:23:27.380 ,3,1,0.,12.0,0.,12.0,0.,12.0,0.,12.0
1979-07-14 12:23:39.380 ,7,1,0.,12.0,0.,12.0,0.,12.0,0.,12.0
1979-07-14 12:23:51.380 ,7,1,0.,12.0,0.,12.0,0.,12.0,0.,12.0
1979-07-14 12:24:03.380 ,4,1,0.,12.0,0.,12.0,0.,12.0,0.,12.0
1979-07-14 12:24:15.380 ,4,1,0.,12.0,0.,12.0,0.,12.0,0.,12.0
1979-07-14 12:24:27.380 ,0,1,0.,12.0,0.,12.0,0.,12.0,0.,12.0
1979-07-14 12:24:39.380 ,0,1,0.,12.0,0.,12.0,0.,12.0,0.,12.0
1979-07-14 12:24:51.380 ,3,1,0.,12.0,0.,12.0,0.,12.0,0.,12.0
1979-07-14 12:25:03.380 ,3,1,0.,12.0,0.,12.0,0.,12.0,0.,12.0
1979-07-14 12:25:15.380 ,7,1,0.,12.0,0.,12.0,0.,12.0,0.,12.0
1979-07-14 12:25:27.380 ,7,1,0.,12.0,0.,12.0,0.,12.0,0.,12.0
1979-07-14 12:25:39.380 ,4,1,0.,12.0,0.,12.0,0.,12.0,0.,12.0
1979-07-14 12:25:51.380 ,4,1,0.,12.0,0.,12.0,0.,12.0,0.,12.0
1979-07-14 12:26:03.380 ,0,1,0.,12.0,0.,12.0,0.,12.0,0.,12.0
1979-07-14 12:26:15.380 ,0,1,0.,12.0,0.,12.0,0.,12.0,0.,12.0
1979-07-14 12:26:27.380 ,3,1,0.,12.0,0.,12.0,0.,12.0,0.,12.0
1979-07-14 12:26:39.380 ,3,1,0.,12.0,0.,12.0,0.,12.0,0.,12.0
1979-07-14 12:26:51.380 ,7,1,0.,12.0,0.,12.0,0.,12.0,0.,12.0
1979-07-14 12:27:03.380 ,7,1,0.,12.0,0.,12.0,0.,12.0,0.,12.0
1979-07-14 12:27:15.380 ,4,1,0.,12.0,0.,12.0,0.,12.0,0.,12.0
1979-07-14 12:27:27.380 ,4,1,1.,12.0,0.,12.0,0.,12.0,0.,12.0
1979-07-14 12:27:39.380 ,0,1,0.,12.0,0.,12.0,0.,12.0,0.,12.0
1979-07-14 12:27:51.380 ,0,1,0.,12.0,0.,12.0,0.,12.0,0.,12.0
1979-07-14 12:28:03.380 ,3,1,0.,12.0,0.,12.0,0.,12.0,0.,12.0
1979-07-14 12:28:15.380 ,3,1,0.,12.0,0.,12.0,0.,12.0,0.,12.0
1979-07-14 12:28:27.380 ,7,1,0.,12.0,0.,12.0,0.,12.0,0.,12.0
1979-07-14 12:28:39.380 ,7,1,0.,12.0,0.,12.0,0.,12.0,0.,12.0
1979-07-14 12:28:51.380 ,4,1,0.,12.0,0.,12.0,0.,12.0,0.,12.0
1979-07-14 12:29:03.380 ,4,1,0.,12.0,0.,12.0,0.,12.0,0.,12.0
1979-07-14 12:29:15.380 ,0,1,0.,12.0,0.,12.0,0.,12.0,0.,12.0
1979-07-14 12:29:27.380 ,0,1,0.,12.0,0.,12.0,0.,12.0,0.,12.0
1979-07-14 12:29:39.380 ,0,0,0.,12.0,0.,12.0,0.,12.0,0.,12.0
1979-07-14 12:29:51.380 ,0,0,0.,12.0,0.,12.0,0.,12.0,0.,12.0
1979-07-14 12:30:03.380 ,0,0,0.,12.0,0.,12.0,0.,12.0,0.,12.0
1979-07-14 12:30:15.380 ,0,0,0.,12.0,0.,12.0,0.,12.0,0.,12.0
1979-07-14 12:30:27.380 ,5,1,0.,12.0,0.,12.0,0.,12.0,0.,12.0
1979-07-14 12:30:39.380 ,5,1,0.,12.0,0.,12.0,0.,12.0,0.,12.0
1979-07-14 12:30:51.380 ,5,0,0.,12.0,0.,12.0,0.,12.0,0.,12.0
1979-07-14 12:31:03.380 ,5,0,0.,12.0,0.,12.0,0.,12.0,0.,12.0
1979-07-14 12:31:15.380 ,4,1,0.,12.0,0.,12.0,0.,12.0,0.,12.0
1979-07-14 12:31:27.380 ,4,1,1.,12.0,0.,12.0,0.,12.0,0.,12.0
1979-07-14 12:31:39.380 ,4,0,0.,12.0,0.,12.0,0.,12.0,0.,12.0
1979-07-14 12:31:51.380 ,4,0,0.,12.0,0.,12.0,0.,12.0,0.,12.0
1979-07-14 12:32:03.380 ,3,1,0.,12.0,0.,12.0,0.,12.0,0.,12.0
1979-07-14 12:32:15.380 ,3,1,0.,12.0,0.,12.0,0.,12.0,0.,12.0
1979-07-14 12:32:27.380 ,3,0,0.,12.0,0.,12.0,0.,12.0,0.,12.0
1979-07-14 12:32:39.380 ,3,0,0.,12.0,0.,12.0,0.,12.0,0.,12.0
1979-07-14 12:32:51.380 ,2,1,0.,12.0,0.,12.0,0.,12.0,0.,12.0
1979-07-14 12:33:03.380 ,2,1,0.,12.0,0.,12.0,0.,12.0,0.,12.0
1979-07-14 12:33:15.380 ,2,0,0.,12.0,0.,12.0,0.,12.0,0.,12.0
1979-07-14 12:33:27.380 ,2,0,0.,12.0,0.,12.0,0.,12.0,0.,12.0
1979-07-14 12:33:39.380 ,1,1,0.,12.0,0.,12.0,0.,12.0,0.,12.0
1979-07-14 12:33:51.380 ,1,1,0.,12.0,0.,12.0,0.,12.0,0.,12.0
1979-07-14 12:34:03.380 ,1,0,0.,12.0,0.,12.0,0.,12.0,0.,12.0
1979-07-14 12:34:15.380 ,1,0,0.,12.0,0.,12.0,0.,12.0,0.,12.0
1979-07-14 12:34:27.380 ,0,1,1.,12.0,0.,12.0,0.,12.0,0.,12.0
1979-07-14 12:34:39.380 ,0,1,0.,12.0,0.,12.0,0.,12.0,0.,12.0
1979-07-14 12:34:51.380 ,0,0,0.,12.0,0.,12.0,0.,12.0,0.,12.0
1979-07-14 12:35:03.380 ,0,0,0.,12.0,0.,12.0,0.,12.0,0.,12.0
1979-07-14 12:35:15.380 ,0,1,0.,12.0,0.,12.0,0.,12.0,0.,12.0
1979-07-14 12:35:27.380 ,0,1,0.,12.0,0.,12.0,0.,12.0,0.,12.0
1979-07-14 12:35:39.380 ,0,0,0.,12.0,0.,12.0,0.,12.0,0.,12.0
1979-07-14 12:35:51.380 ,0,0,0.,12.0,0.,12.0,0.,12.0,0.,12.0
1979-07-14 12:36:03.380 ,1,1,0.,12.0,0.,12.0,0.,12.0,0.,12.0
1979-07-14 12:36:15.380 ,1,1,0.,12.0,0.,12.0,0.,12.0,0.,12.0
1979-07-14 12:36:27.380 ,1,0,0.,12.0,0.,12.0,0.,12.0,0.,12.0
1979-07-14 12:36:39.380 ,1,0,0.,12.0,0.,12.0,0.,12.0,0.,12.0
1979-07-14 12:36:51.380 ,2,1,0.,12.0,0.,12.0,0.,12.0,0.,12.0
1979-07-14 12:37:03.380 ,2,1,0.,12.0,0.,12.0,0.,12.0,0.,12.0
1979-07-14 12:37:15.380 ,2,0,0.,12.0,0.,12.0,0.,12.0,0.,12.0
1979-07-14 12:37:27.380 ,2,0,0.,12.0,0.,12.0,0.,12.0,0.,12.0
1979-07-14 12:37:39.380 ,3,1,1.,12.0,0.,12.0,0.,12.0,0.,12.0
1979-07-14 12:37:51.380 ,3,1,0.,12.0,0.,12.0,0.,12.0,0.,12.0
1979-07-14 12:38:03.380 ,3,0,1.,12.0,0.,12.0,0.,12.0,0.,12.0
1979-07-14 12:38:15.380 ,3,0,0.,12.0,0.,12.0,0.,12.0,0.,12.0
1979-07-14 12:38:27.380 ,4,1,0.,12.0,0.,12.0,0.,12.0,0.,12.0
1979-07-14 12:38:39.380 ,4,1,0.,12.0,0.,12.0,0.,12.0,0.,12.0
1979-07-14 12:38:51.380 ,4,0,0.,12.0,0.,12.0,0.,12.0,0.,12.0
1979-07-14 12:39:03.380 ,4,0,0.,12.0,0.,12.0,0.,12.0,0.,12.0
1979-07-14 12:39:15.380 ,5,1,0.,12.0,0.,12.0,0.,12.0,0.,12.0
1979-07-14 12:39:27.380 ,5,1,0.,12.0,0.,12.0,0.,12.0,0.,12.0
1979-07-14 12:39:39.380 ,5,0,0.,12.0,0.,12.0,0.,12.0,0.,12.0
1979-07-14 12:39:51.380 ,5,0,1.,12.0,0.,12.0,0.,12.0,0.,12.0
1979-07-14 12:40:03.380 ,6,1,0.,12.0,0.,12.0,0.,12.0,0.,12.0
1979-07-14 12:40:15.380 ,6,1,0.,12.0,0.,12.0,0.,12.0,0.,12.0
1979-07-14 12:40:27.380 ,6,0,0.,12.0,0.,12.0,0.,12.0,0.,12.0
1979-07-14 12:40:39.380 ,6,0,0.,12.0,0.,12.0,0.,12.0,1.,12.0
1979-07-14 12:40:51.380 ,7,1,1.,12.0,0.,12.0,0.,12.0,0.,12.0
1979-07-14 12:41:03.380 ,7,1,0.,12.0,0.,12.0,0.,12.0,0.,12.0
1979-07-14 12:41:15.380 ,0,0,0.,12.0,0.,12.0,0.,12.0,0.,12.0
1979-07-14 12:41:27.380 ,0,0,,0,,0,,0,,0
1979-07-14 12:42:40.580 ,0,0,,0,,0,,0,,0
1979-07-14 12:42:52.580 ,0,0,0.,12.0,0.,12.0,0.,12.0,0.,12.0
1979-07-14 12:42:51.380 ,0,0,0.,12.0,0.,12.0,0.,12.0,1.,12.0
1979-07-14 12:43:03.380 ,0,0,0.,12.0,0.,12.0,0.,12.0,0.,12.0
1979-07-14 12:43:15.380 ,5,1,1.,12.0,0.,12.0,0.,12.0,0.,12.0
1979-07-14 12:43:27.380 ,5,1,0.,12.0,0.,12.0,0.,12.0,0.,12.0
1979-07-14 12:43:39.380 ,5,0,0.,12.0,0.,12.0,0.,12.0,0.,12.0
1979-07-14 12:43:51.380 ,5,0,1.,12.0,0.,12.0,0.,12.0,0.,12.0
1979-07-14 12:44:03.380 ,4,1,0.,12.0,0.,12.0,0.,12.0,0.,12.0
1979-07-14 12:44:15.380 ,4,1,1.,12.0,0.,12.0,0.,12.0,0.,12.0
1979-07-14 12:44:27.380 ,4,0,0.,12.0,0.,12.0,0.,12.0,0.,12.0
1979-07-14 12:44:39.380 ,4,0,0.,12.0,0.,12.0,0.,12.0,0.,12.0
1979-07-14 12:44:51.380 ,3,1,0.,12.0,0.,12.0,0.,12.0,0.,12.0
1979-07-14 12:45:03.380 ,3,1,1.,12.0,0.,12.0,0.,12.0,0.,12.0
1979-07-14 12:45:15.380 ,3,0,0.,12.0,0.,12.0,0.,12.0,0.,12.0
1979-07-14 12:45:27.380 ,3,0,0.,12.0,0.,12.0,0.,12.0,0.,12.0
1979-07-14 12:45:39.380 ,2,1,0.,12.0,0.,12.0,0.,12.0,0.,12.0
1979-07-14 12:45:51.380 ,2,1,0.,12.0,0.,12.0,0.,12.0,0.,12.0
1979-07-14 12:46:03.380 ,2,0,0.,12.0,0.,12.0,0.,12.0,0.,12.0
1979-07-14 12:46:15.380 ,2,0,0.,12.0,0.,12.0,0.,12.0,0.,12.0
1979-07-14 12:46:27.380 ,1,1,0.,12.0,0.,12.0,0.,12.0,1.,12.0
1979-07-14 12:46:39.380 ,1,1,0.,12.0,0.,12.0,0.,12.0,0.,12.0
1979-07-14 12:46:51.380 ,1,0,0.,12.0,0.,12.0,0.,12.0,0.,12.0
1979-07-14 12:47:03.380 ,1,0,0.,12.0,0.,12.0,0.,12.0,0.,12.0
1979-07-14 12:47:15.380 ,0,1,0.,12.0,0.,12.0,0.,12.0,0.,12.0
1979-07-14 12:47:27.380 ,0,1,0.,12.0,0.,12.0,0.,12.0,0.,12.0
1979-07-14 12:47:39.380 ,0,0,1.,12.0,0.,12.0,0.,12.0,0.,12.0
1979-07-14 12:47:51.380 ,0,0,0.,12.0,0.,12.0,0.,12.0,0.,12.0
1979-07-14 12:48:03.380 ,0,1,0.,12.0,0.,12.0,0.,12.0,0.,12.0
1979-07-14 12:48:15.380 ,0,1,0.,12.0,0.,12.0,0.,12.0,0.,12.0
1979-07-14 12:48:27.380 ,0,0,0.,12.0,0.,12.0,0.,12.0,0.,12.0
1979-07-14 12:48:39.380 ,0,0,0.,12.0,0.,12.0,0.,12.0,0.,12.0
1979-07-14 12:48:51.380 ,1,1,0.,12.0,0.,12.0,0.,12.0,0.,12.0
1979-07-14 12:49:03.380 ,1,1,0.,12.0,0.,12.0,0.,12.0,0.,12.0
1979-07-14 12:49:15.380 ,1,0,0.,12.0,0.,12.0,0.,12.0,0.,12.0
1979-07-14 12:49:27.380 ,1,0,0.,12.0,0.,12.0,0.,12.0,0.,12.0
1979-07-14 12:49:39.380 ,2,1,0.,12.0,0.,12.0,0.,12.0,0.,12.0
1979-07-14 12:49:51.380 ,2,1,0.,12.0,0.,12.0,0.,12.0,0.,12.0
1979-07-14 12:50:03.380 ,2,0,0.,12.0,0.,12.0,0.,12.0,0.,12.0
1979-07-14 12:50:15.380 ,2,0,0.,12.0,0.,12.0,0.,12.0,0.,12.0
1979-07-14 12:50:27.380 ,3,1,0.,12.0,0.,12.0,0.,12.0,0.,12.0
1979-07-14 12:50:39.380 ,3,1,1.,12.0,0.,12.0,0.,12.0,0.,12.0
1979-07-14 12:50:51.380 ,3,0,0.,12.0,0.,12.0,0.,12.0,0.,12.0
1979-07-14 12:51:03.380 ,3,0,0.,12.0,0.,12.0,0.,12.0,0.,12.0
1979-07-14 12:51:15.380 ,4,1,0.,12.0,0.,12.0,0.,12.0,1.,12.0
1979-07-14 12:51:27.380 ,4,1,0.,12.0,0.,12.0,0.,12.0,0.,12.0
1979-07-14 12:51:39.380 ,4,0,0.,12.0,0.,12.0,0.,12.0,0.,12.0
1979-07-14 12:51:51.380 ,4,0,0.,12.0,0.,12.0,0.,12.0,0.,12.0
1979-07-14 12:52:03.370 ,5,1,0.,12.0,0.,12.0,0.,12.0,0.,12.0
1979-07-14 12:52:15.370 ,5,1,0.,12.0,0.,12.0,0.,12.0,0.,12.0
1979-07-14 12:52:27.370 ,5,0,1.,12.0,0.,12.0,0.,12.0,1.,12.0
1979-07-14 12:52:39.370 ,5,0,0.,12.0,0.,12.0,0.,12.0,1.,12.0
1979-07-14 12:52:51.370 ,6,1,0.,12.0,0.,12.0,0.,12.0,0.,12.0
1979-07-14 12:53:03.370 ,6,1,0.,12.0,0.,12.0,0.,12.0,0.,12.0
1979-07-14 12:53:15.370 ,6,0,1.,12.0,0.,12.0,0.,12.0,1.,12.0
1979-07-14 12:53:27.370 ,6,0,0.,12.0,0.,12.0,0.,12.0,0.,12.0
1979-07-14 12:53:39.370 ,7,1,0.,12.0,0.,12.0,0.,12.0,0.,12.0
1979-07-14 12:53:51.370 ,7,1,0.,12.0,0.,12.0,0.,12.0,0.,12.0
1979-07-14 12:54:03.370 ,7,0,0.,12.0,0.,12.0,0.,12.0,0.,12.0
1979-07-14 12:54:15.370 ,7,0,0.,12.0,0.,12.0,0.,12.0,0.,12.0
1979-07-14 12:54:27.370 ,7,1,0.,12.0,0.,12.0,0.,12.0,0.,12.0
1979-07-14 12:54:39.370 ,7,1,0.,12.0,0.,12.0,0.,12.0,0.,12.0
1979-07-14 12:54:51.370 ,7,0,0.,12.0,0.,12.0,0.,12.0,0.,12.0
1979-07-14 12:55:03.370 ,7,0,0.,12.0,0.,12.0,0.,12.0,0.,12.0
1979-07-14 12:55:15.370 ,0,0,0.,12.0,0.,12.0,0.,12.0,0.,12.0
1979-07-14 12:55:27.370 ,0,0,0.,12.0,0.,12.0,0.,12.0,0.,12.0
1979-07-14 12:55:39.370 ,0,0,0.,12.0,0.,12.0,0.,12.0,0.,12.0
1979-07-14 12:55:51.370 ,0,0,0.,12.0,0.,12.0,0.,12.0,0.,12.0
1979-07-14 12:56:03.370 ,5,1,0.,12.0,0.,12.0,0.,12.0,0.,12.0
1979-07-14 12:56:15.370 ,5,1,1.,12.0,0.,12.0,0.,12.0,0.,12.0
1979-07-14 12:56:27.370 ,5,0,1.,12.0,0.,12.0,0.,12.0,0.,12.0
1979-07-14 12:56:39.370 ,5,0,0.,12.0,0.,12.0,0.,12.0,0.,12.0
1979-07-14 12:56:51.370 ,4,1,1.,12.0,0.,12.0,0.,12.0,0.,12.0
1979-07-14 12:57:03.370 ,4,1,0.,12.0,0.,12.0,0.,12.0,0.,12.0
1979-07-14 12:57:15.370 ,4,0,0.,12.0,0.,12.0,0.,12.0,0.,12.0
1979-07-14 12:57:27.370 ,4,0,0.,12.0,0.,12.0,0.,12.0,0.,12.0
1979-07-14 12:57:39.370 ,3,1,0.,12.0,0.,12.0,0.,12.0,0.,12.0
1979-07-14 12:57:51.370 ,3,1,0.,12.0,0.,12.0,0.,12.0,0.,12.0
1979-07-14 12:58:03.370 ,3,0,0.,12.0,0.,12.0,0.,12.0,0.,12.0
1979-07-14 12:58:15.370 ,3,0,0.,12.0,0.,12.0,0.,12.0,0.,12.0
1979-07-14 12:58:27.370 ,2,1,0.,12.0,0.,12.0,0.,12.0,0.,12.0
1979-07-14 12:58:39.370 ,2,1,0.,12.0,0.,12.0,0.,12.0,0.,12.0
1979-07-14 12:58:51.370 ,2,0,0.,12.0,0.,12.0,0.,12.0,0.,12.0
1979-07-14 12:59:03.370 ,2,0,0.,12.0,0.,12.0,0.,12.0,0.,12.0
1979-07-14 12:59:15.370 ,1,1,0.,12.0,0.,12.0,0.,12.0,0.,12.0
1979-07-14 12:59:27.370 ,1,1,0.,12.0,0.,12.0,0.,12.0,0.,12.0
1979-07-14 12:59:39.370 ,1,0,0.,12.0,0.,12.0,0.,12.0,0.,12.0
1979-07-14 12:59:51.370 ,1,0,0.,12.0,0.,12.0,0.,12.0,0.,12.0
1979-07-14 13:00:03.370 ,0,1,0.,12.0,0.,12.0,0.,12.0,0.,12.0
1979-07-14 13:00:15.370 ,0,1,0.,12.0,0.,12.0,0.,12.0,0.,12.0
1979-07-14 13:00:27.370 ,0,0,0.,12.0,0.,12.0,0.,12.0,0.,12.0
1979-07-14 13:00:39.370 ,0,0,0.,12.0,0.,12.0,0.,12.0,0.,12.0
1979-07-14 13:00:51.370 ,0,1,1.,12.0,0.,12.0,0.,12.0,0.,12.0
1979-07-14 13:01:03.370 ,0,1,0.,12.0,0.,12.0,0.,12.0,0.,12.0
1979-07-14 13:01:15.370 ,0,0,0.,12.0,0.,12.0,0.,12.0,0.,12.0
1979-07-14 13:01:27.370 ,0,0,0.,12.0,0.,12.0,0.,12.0,0.,12.0
1979-07-14 13:01:39.370 ,1,1,0.,12.0,0.,12.0,0.,12.0,0.,12.0
1979-07-14 13:01:51.370 ,1,1,0.,12.0,0.,12.0,0.,12.0,0.,12.0
1979-07-14 13:02:03.370 ,1,0,0.,12.0,0.,12.0,0.,12.0,0.,12.0
1979-07-14 13:02:15.370 ,1,0,0.,12.0,0.,12.0,0.,12.0,0.,12.0
1979-07-14 13:02:27.370 ,2,1,0.,12.0,0.,12.0,0.,12.0,0.,12.0
1979-07-14 13:02:39.370 ,2,1,0.,12.0,0.,12.0,0.,12.0,0.,12.0
1979-07-14 13:02:51.370 ,2,0,0.,12.0,0.,12.0,0.,12.0,0.,12.0
1979-07-14 13:03:03.370 ,2,0,0.,12.0,0.,12.0,0.,12.0,0.,12.0
1979-07-14 13:03:15.370 ,3,1,0.,12.0,0.,12.0,0.,12.0,0.,12.0
1979-07-14 13:03:27.370 ,3,1,0.,12.0,0.,12.0,0.,12.0,0.,12.0
1979-07-14 13:03:39.370 ,3,0,0.,12.0,0.,12.0,0.,12.0,0.,12.0
1979-07-14 13:03:51.370 ,3,0,0.,12.0,0.,12.0,0.,12.0,1.,12.0
1979-07-14 13:04:03.370 ,4,1,0.,12.0,0.,12.0,0.,12.0,0.,12.0
1979-07-14 13:04:15.370 ,4,1,0.,12.0,0.,12.0,0.,12.0,0.,12.0
1979-07-14 13:04:27.370 ,4,0,0.,12.0,0.,12.0,0.,12.0,0.,12.0
1979-07-14 13:04:39.370 ,4,0,0.,12.0,0.,12.0,0.,12.0,0.,12.0
1979-07-14 13:04:51.370 ,5,1,0.,12.0,0.,12.0,0.,12.0,0.,12.0
1979-07-14 13:05:03.370 ,5,1,0.,12.0,0.,12.0,0.,12.0,0.,12.0
1979-07-14 13:05:15.370 ,5,0,0.,12.0,0.,12.0,0.,12.0,0.,12.0
1979-07-14 13:05:27.370 ,5,0,0.,12.0,0.,12.0,0.,12.0,0.,12.0
1979-07-14 13:05:39.370 ,6,1,0.,12.0,0.,12.0,0.,12.0,0.,12.0
1979-07-14 13:05:51.370 ,6,1,0.,12.0,0.,12.0,0.,12.0,0.,12.0
1979-07-14 13:06:03.370 ,6,0,0.,12.0,0.,12.0,0.,12.0,0.,12.0
1979-07-14 13:06:15.370 ,6,0,0.,12.0,0.,12.0,0.,12.0,0.,12.0
1979-07-14 13:06:27.370 ,7,0,0.,12.0,0.,12.0,0.,12.0,0.,12.0
1979-07-14 13:06:39.370 ,7,0,0.,12.0,0.,12.0,0.,12.0,0.,12.0
1979-07-14 13:06:51.370 ,7,0,0.,12.0,0.,12.0,0.,12.0,0.,12.0
1979-07-14 13:07:03.370 ,7,0,0.,12.0,0.,12.0,0.,12.0,0.,12.0
1979-07-14 13:07:15.370 ,4,1,0.,12.0,0.,12.0,0.,12.0,0.,12.0
1979-07-14 13:07:27.370 ,4,1,1.,12.0,0.,12.0,0.,12.0,0.,12.0
1979-07-14 13:07:39.370 ,0,1,0.,12.0,0.,12.0,0.,12.0,1.,12.0
1979-07-14 13:07:51.370 ,0,1,1.,12.0,0.,12.0,0.,12.0,0.,12.0
1979-07-14 13:08:03.370 ,3,1,0.,12.0,0.,12.0,0.,12.0,0.,12.0
1979-07-14 13:08:15.370 ,3,1,0.,12.0,0.,12.0,0.,12.0,1.,12.0
1979-07-14 13:08:27.370 ,7,1,0.,12.0,0.,12.0,0.,12.0,0.,12.0
1979-07-14 13:08:39.370 ,7,1,0.,12.0,0.,12.0,0.,12.0,0.,12.0
1979-07-14 13:08:51.370 ,4,1,0.,12.0,0.,12.0,0.,12.0,0.,12.0
1979-07-14 13:09:03.370 ,4,1,0.,12.0,0.,12.0,0.,12.0,0.,12.0
1979-07-14 13:09:15.370 ,0,1,1.,12.0,0.,12.0,0.,12.0,0.,12.0
1979-07-14 13:09:27.370 ,0,1,0.,12.0,0.,12.0,0.,12.0,0.,12.0
1979-07-14 13:09:39.370 ,3,1,0.,12.0,0.,12.0,0.,12.0,0.,12.0
1979-07-14 13:09:51.370 ,3,1,0.,12.0,0.,12.0,0.,12.0,0.,12.0
1979-07-14 13:10:03.370 ,7,1,0.,12.0,0.,12.0,0.,12.0,0.,12.0
1979-07-14 13:10:15.370 ,7,1,0.,12.0,0.,12.0,0.,12.0,0.,12.0
1979-07-14 13:10:27.370 ,4,1,0.,12.0,0.,12.0,0.,12.0,0.,12.0
1979-07-14 13:10:39.370 ,4,1,0.,12.0,0.,12.0,0.,12.0,0.,12.0
1979-07-14 13:10:51.370 ,0,1,0.,12.0,0.,12.0,0.,12.0,0.,12.0
1979-07-14 13:11:03.370 ,0,1,0.,12.0,0.,12.0,0.,12.0,0.,12.0
1979-07-14 13:11:15.370 ,3,1,0.,12.0,0.,12.0,0.,12.0,0.,12.0
1979-07-14 13:11:27.370 ,3,1,0.,12.0,0.,12.0,0.,12.0,0.,12.0
1979-07-14 13:11:39.370 ,7,1,0.,12.0,0.,12.0,0.,12.0,0.,12.0
1979-07-14 13:11:51.370 ,7,1,0.,12.0,0.,12.0,0.,12.0,0.,12.0
1979-07-14 13:12:03.370 ,4,1,0.,12.0,0.,12.0,0.,12.0,0.,12.0
1979-07-14 13:12:15.370 ,4,1,0.,12.0,0.,12.0,0.,12.0,0.,12.0
1979-07-14 13:12:27.370 ,0,0,0.,12.0,0.,12.0,0.,12.0,0.,12.0
1979-07-14 13:12:39.370 ,0,0,0.,12.0,0.,12.0,0.,12.0,0.,12.0
1979-07-14 13:12:51.370 ,0,0,0.,12.0,0.,12.0,0.,12.0,0.,12.0
1979-07-14 13:13:03.370 ,0,0,0.,12.0,0.,12.0,0.,12.0,0.,12.0
1979-07-14 13:13:15.370 ,7,1,0.,12.0,0.,12.0,0.,12.0,0.,12.0
1979-07-14 13:13:27.370 ,7,1,0.,12.0,0.,12.0,0.,12.0,0.,12.0
1979-07-14 13:13:39.370 ,4,1,0.,12.0,0.,12.0,0.,12.0,0.,12.0
1979-07-14 13:13:51.370 ,4,1,1.,12.0,0.,12.0,0.,12.0,0.,12.0
1979-07-14 13:14:03.370 ,0,1,1.,12.0,0.,12.0,0.,12.0,0.,12.0
1979-07-14 13:14:15.370 ,0,1,0.,12.0,0.,12.0,0.,12.0,0.,12.0
1979-07-14 13:14:27.370 ,3,1,0.,12.0,0.,12.0,0.,12.0,0.,12.0
1979-07-14 13:14:39.370 ,3,1,0.,12.0,0.,12.0,0.,12.0,0.,12.0
1979-07-14 13:14:51.370 ,7,1,0.,12.0,0.,12.0,0.,12.0,0.,12.0
1979-07-14 13:15:03.370 ,7,1,0.,12.0,0.,12.0,0.,12.0,0.,12.0
1979-07-14 13:15:15.370 ,4,1,0.,12.0,0.,12.0,0.,12.0,0.,12.0
1979-07-14 13:15:27.370 ,4,1,0.,12.0,0.,12.0,0.,12.0,0.,12.0
1979-07-14 13:15:39.370 ,0,1,0.,12.0,0.,12.0,0.,12.0,0.,12.0
1979-07-14 13:15:51.370 ,0,1,1.,12.0,0.,12.0,0.,12.0,0.,12.0
1979-07-14 13:16:03.370 ,3,1,0.,12.0,0.,12.0,0.,12.0,0.,12.0
1979-07-14 13:16:15.370 ,3,1,0.,12.0,0.,12.0,0.,12.0,0.,12.0
1979-07-14 13:16:27.370 ,7,1,0.,12.0,0.,12.0,0.,12.0,0.,12.0
1979-07-14 13:16:39.370 ,7,1,0.,12.0,0.,12.0,0.,12.0,0.,12.0
1979-07-14 13:16:51.370 ,4,1,0.,12.0,0.,12.0,0.,12.0,0.,12.0
1979-07-14 13:17:03.370 ,4,1,0.,12.0,0.,12.0,0.,12.0,0.,12.0
1979-07-14 13:17:15.370 ,0,1,0.,12.0,0.,12.0,0.,12.0,0.,12.0
1979-07-14 13:17:27.370 ,0,1,0.,12.0,0.,12.0,0.,12.0,0.,12.0
1979-07-14 13:17:39.370 ,0,0,0.,12.0,0.,12.0,0.,12.0,0.,12.0
1979-07-14 13:17:51.370 ,0,0,0.,12.0,0.,12.0,0.,12.0,0.,12.0
1979-07-14 13:18:03.370 ,0,0,0.,12.0,0.,12.0,0.,12.0,0.,12.0
1979-07-14 13:18:15.370 ,0,0,0.,12.0,0.,12.0,0.,12.0,0.,12.0
1979-07-14 13:18:27.370 ,5,1,0.,12.0,0.,12.0,0.,12.0,0.,12.0
1979-07-14 13:18:39.370 ,5,1,1.,12.0,0.,12.0,0.,12.0,0.,12.0
1979-07-14 13:18:51.370 ,5,0,0.,12.0,0.,12.0,0.,12.0,0.,12.0
1979-07-14 13:19:03.370 ,5,0,0.,12.0,0.,12.0,0.,12.0,1.,12.0
1979-07-14 13:19:15.370 ,4,1,0.,12.0,0.,12.0,0.,12.0,0.,12.0
1979-07-14 13:19:27.370 ,4,1,0.,12.0,0.,12.0,0.,12.0,0.,12.0
1979-07-14 13:19:39.370 ,4,0,0.,12.0,0.,12.0,0.,12.0,0.,12.0